N2QDK-2 Weather Reports


time (UTC)temp
C
wind
direction
speed
KPH
gust
KPH
rain 1hr
cm
rain 24hr
cm
rain mn
cm
humidity
%
barometer
mb
20260505034516 18 225 3.2 6.4 0.00 0.00 0.00 55 1003.1
20260505033516 18 225 3.2 6.4 0.00 0.00 0.00 52 1003.2
20260505032516 17 225 4.8 12.9 0.00 0.00 0.00 51 1003.3
20260505031516 17 0.0 0.0 0.00 0.00 0.00 52 1002.8
20260505030516 17 0.0 0.0 0.00 0.00 0.00 53 1002.8
20260505025516 16 0.0 0.0 0.00 0.00 0.00 54 1002.9
20260505024518 16 0.0 0.0 0.00 0.00 0.00 55 1002.9
20260505023516 16 0.0 0.0 0.00 0.00 0.00 55 1002.8
20260505022517 16 0.0 0.0 0.00 0.00 0.00 56 1002.9
20260505021516 16 0.0 0.0 0.00 0.00 0.00 56 1003.0
20260505020516 15 0.0 0.0 0.00 0.00 0.00 58 1003.1
20260505015516 15 0.0 0.0 0.00 0.00 0.00 60 1003.3
20260505014516 16 0.0 0.0 0.00 0.00 0.00 59 1003.3
20260505013516 16 0.0 0.0 0.00 0.00 0.00 55 1003.2
20260505012516 16 0.0 0.0 0.00 0.00 0.00 55 1003.2
20260505011517 17 0.0 0.0 0.00 0.00 0.00 52 1003.1
20260505010516 17 0.0 0.0 0.00 0.00 0.00 51 1002.9
20260505005516 18 0.0 0.0 0.00 0.00 0.00 50 1002.9
20260505004516 18 0.0 0.0 0.00 0.00 0.00 47 1002.9
20260505003516 19 0.0 0.0 0.00 0.00 0.00 47 1002.9
20260505002516 20 0.0 0.0 0.00 0.00 0.00 44 1002.9
20260505001516 20 0.0 0.0 0.00 0.03 0.00 43 1003.0
20260505000516 20 0.0 0.0 0.00 0.03 0.00 42 1002.9
20260504235516 21 0.0 0.0 0.00 0.03 0.00 41 1002.8
20260504234516 21 0.0 1.6 0.00 0.03 0.00 40 1002.8
20260504233516 22 0.0 0.0 0.00 0.03 0.00 39 1002.6
20260504232516 22 0.0 0.0 0.00 0.03 0.00 37 1002.7
20260504231516 22 225 1.6 3.2 0.00 0.03 0.00 36 1002.7
20260504230516 22 248 1.6 3.2 0.00 0.03 0.00 36 1002.7
20260504225516 22 225 1.6 4.8 0.00 0.03 0.00 35 1002.7
20260504224516 23 248 3.2 8.0 0.00 0.03 0.00 35 1002.6
20260504223516 23 225 1.6 3.2 0.00 0.03 0.00 35 1002.6
20260504222515 23 225 3.2 6.4 0.00 0.03 0.00 35 1002.6
20260504221516 23 225 3.2 4.8 0.00 0.03 0.00 36 1002.6
20260504220516 23 225 3.2 4.8 0.00 0.03 0.00 35 1002.7
20260504215516 23 225 3.2 9.7 0.00 0.03 0.00 34 1002.8
20260504214516 24 248 3.2 6.4 0.00 0.03 0.00 35 1002.9
20260504213515 24 248 3.2 6.4 0.00 0.03 0.00 35 1003.0
20260504212516 23 248 3.2 8.0 0.00 0.03 0.00 36 1002.9
20260504211516 23 225 3.2 11.3 0.00 0.03 0.00 35 1002.9
20260504210516 23 248 4.8 8.0 0.00 0.03 0.00 37 1003.2
20260504205515 23 225 3.2 9.7 0.00 0.03 0.00 36 1003.3
20260504204516 23 248 3.2 11.3 0.00 0.03 0.00 36 1003.3
20260504203516 23 248 3.2 8.0 0.00 0.03 0.00 38 1003.2
20260504202517 23 248 4.8 9.7 0.00 0.03 0.00 36 1003.4
20260504201517 23 225 3.2 8.0 0.00 0.03 0.00 37 1003.4
20260504200516 23 248 4.8 9.7 0.00 0.03 0.00 38 1003.6
20260504195516 23 270 4.8 11.3 0.00 0.03 0.00 39 1003.7
20260504194517 23 225 4.8 11.3 0.00 0.03 0.00 37 1003.9
20260504193517 23 225 3.2 9.7 0.00 0.03 0.00 36 1004.1
20260504192516 23 248 6.4 12.9 0.00 0.03 0.00 37 1004.3
20260504191516 23 270 4.8 16.1 0.00 0.03 0.00 38 1004.3
20260504190516 22 225 4.8 11.3 0.00 0.03 0.00 39 1004.5
20260504185517 22 225 3.2 9.7 0.00 0.03 0.00 40 1004.6
20260504184516 22 225 3.2 9.7 0.00 0.03 0.00 41 1004.8
20260504183516 22 248 4.8 9.7 0.00 0.03 0.00 43 1004.8
20260504182516 22 248 4.8 11.3 0.00 0.03 0.00 42 1005.0
20260504181516 22 225 4.8 9.7 0.00 0.03 0.00 41 1005.0
20260504180516 22 225 3.2 6.4 0.00 0.03 0.00 44 1005.0
20260504175517 21 248 4.8 9.7 0.00 0.03 0.00 43 1005.2
20260504174516 21 225 4.8 11.3 0.00 0.03 0.00 45 1005.2
20260504173516 21 248 3.2 8.0 0.00 0.03 0.00 46 1005.2
20260504172516 21 248 4.8 14.5 0.00 0.03 0.00 48 1005.5
20260504171516 21 248 3.2 6.4 0.00 0.03 0.00 47 1005.4
20260504170516 20 248 4.8 14.5 0.00 0.03 0.00 47 1005.4
20260504150516 17 248 4.8 11.3 0.00 0.03 0.00 51 1006.3
20260504140516 16 248 3.2 6.4 0.00 0.03 0.00 54 1006.3
20260504130515 13 248 3.2 9.7 0.00 0.03 0.00 56 1006.9
20260504110517 11 225 3.2 4.8 0.00 0.03 0.00 59 1007.0
20260504100517 10 225 1.6 3.2 0.00 0.03 0.00 59 1006.8
20260504081517 10 225 3.2 4.8 0.00 0.03 0.00 61 1007.5
20260504080517 10 225 3.2 6.4 0.00 0.03 0.00 61 1007.6
20260504050517 11 0.0 0.0 0.00 0.03 0.00 58 1008.7
20260504045517 11 0.0 0.0 0.00 0.03 0.00 58 1008.8
20260504044517 11 248 1.6 3.2 0.00 0.03 0.00 57 1008.9
20260504043517 12 225 1.6 3.2 0.00 0.03 0.00 56 1008.9
20260504042516 12 248 1.6 4.8 0.00 0.03 0.00 55 1008.9
20260504041517 12 225 3.2 4.8 0.00 0.03 0.00 54 1008.7
20260504040516 12 225 1.6 3.2 0.00 0.03 0.00 55 1008.8
20260504035517 12 225 1.6 6.4 0.00 0.03 0.03 55 1008.7